Cosmos 1825 - Orbit

View from above orbital plane
View from above orbital plane
View from above satellite
View from above satellite

Ground track
Ground track

The orbit data is extracted from the following two-line orbital elements,

1 17566U 87024A   13139.09507157  .00004084  00000-0  25518-3 0  7243
2 17566 082.5095 318.6348 0004398 342.6158 157.3346 15.09214239428269
Epoch (UTC): 19 May 2013 02:16:54
Eccentricity: 0.0004398
inclination: 82.5095°
perigee height: 535 km
apogee height: 541 km
right ascension of ascending node: 318.6348°
argument of perigee: 342.6158°
revolutions per day: 15.09214239
mean anomaly at epoch: 157.3346°
orbit number at epoch: 42826

The dashed part of the orbit path shows where the satellite is in the earth's shadow,  

Developed and maintained by Chris Peat, Heavens-Above GmbH. Please read the updated FAQ before sending e-mail. Imprint. DLR